Dewpoint
18 16 15 13 12 12 12 13 16 18 19 17 18 21 21 21 22 24 26 27 30 30 32 33 35 33 36 38 41 43 44 45 45 46 47 47 46 46 47 47 48 53 53 57 58 58 58 59 61 62 62 63 64 67 69 71 71 73 71 72 73 74 74 74 73 73 73 72 72 73 71 71 71 74 74 73 73 71 72 77 77 78 78 78 78 78
15 16 13 12 11 11 11 14 17 17 16 16 18 18 19 21 22 22 24 26 29 29 31 35 35 36 35 39 40 43 44 44 44 46 48 48 47 48 50 50 49 51 53 56 58 58 58 58 60 60 62 63 64 66 68 69 71 72 72 72 73 73 74 74 74 75 74 74 72 72 71 70 70 72 73 73 73 70 72 77 78 79 78 78 78 78
14 11 12 11 10 7 7 8 13 14 13 15 17 19 18 20 23 24 25 25 29 30 30 33 33 35 36 38 42 42 44 46 45 46 47 51 51 51 49 50 51 50 54 54 57 57 57 58 59 61 62 62 62 64 66 69 71 73 72 73 74 73 73 74 74 75 75 74 74 72 72 71 70 72 72 71 72 73 72 76 78 78 79 78 78 77
12 9 9 10 6 5 4 7 9 12 15 16 16 18 17 19 21 21 23 24 28 30 29 33 31 34 37 39 46 43 43 45 46 45 46 48 51 51 48 51 53 52 55 52 56 57 56 58 60 62 63 64 64 66 66 68 71 72 73 73 74 74 73 74 75 75 75 75 75 75 75 74 72 72 73 74 74 73 72 72 77 79 78 78 77 77
9 10 8 7 6 3 4 5 7 10 14 15 14 16 16 18 19 22 23 23 29 30 30 31 34 34 35 36 37 42 42 42 44 45 46 48 49 50 49 50 54 53 56 55 54 57 57 59 59 63 64 63 64 66 66 67 69 71 73 73 74 75 74 74 75 75 76 75 75 75 75 76 75 74 74 72 72 72 73 71 76 78 78 77 77 77
7 9 8 5 5 2 2 2 4 7 11 12 15 16 16 18 18 21 23 22 25 28 30 29 32 35 37 36 37 39 39 42 45 48 48 52 50 52 51 52 53 54 56 58 57 58 58 58 61 64 65 64 65 66 67 67 69 72 73 74 74 75 75 74 74 75 75 75 75 75 74 74 74 73 72 72 72 70 71 68 69 78 76 76 76 75
7 7 7 4 4 2 -0 1 5 10 11 13 16 17 16 16 18 20 21 21 24 29 31 31 31 31 35 35 38 39 40 41 46 47 47 50 53 50 49 51 51 51 52 55 56 56 56 59 60 63 65 64 64 66 67 68 70 73 74 74 74 75 75 75 75 75 75 75 75 75 74 74 74 73 73 75 73 74 74 74 74 77 75 76 75 74
9 6 4 6 5 3 0 1 4 7 8 10 13 15 16 16 16 18 20 20 23 24 25 30 32 32 34 35 39 39 41 41 43 44 47 46 50 47 48 46 53 51 52 54 58 58 59 61 60 61 65 65 63 65 67 69 71 74 75 75 75 75 75 75 75 75 76 75 75 75 75 75 75 72 74 74 75 76 76 75 73 73 75 75 75 74
12 8 4 4 5 2 -0 -1 2 4 5 8 10 12 14 15 16 17 17 19 21 26 29 28 30 34 34 38 40 40 39 41 45 45 46 50 49 49 49 48 51 50 53 54 56 58 59 62 61 62 64 64 64 65 67 69 71 74 75 75 75 75 76 76 76 76 76 76 76 75 75 75 75 74 74 74 74 75 75 74 74 75 74 75 75 75
13 12 8 3 3 3 2 -1 0 2 3 7 8 10 12 13 15 17 17 18 21 25 27 29 27 31 33 36 35 38 38 39 40 42 42 47 49 50 48 50 49 51 56 54 55 59 60 61 61 61 63 64 65 66 69 69 71 73 74 75 76 76 76 76 76 76 76 76 76 76 76 75 75 75 74 74 75 76 76 75 75 75 75 74 75 75
14 20 18 5 3 6 6 1 -2 -2 1 5 6 8 9 11 16 20 19 22 26 25 27 22 24 27 30 34 35 36 36 37 38 42 42 46 47 48 48 46 46 51 55 56 56 59 61 62 62 62 62 65 66 67 68 69 70 71 73 75 75 76 76 76 76 76 76 76 76 76 76 75 75 75 75 75 75 75 75 74 74 75 75 75 74 73
14 14 14 14 12 8 3 -6 -5 -4 -1 2 3 6 9 15 17 23 20 24 21 21 27 21 20 24 27 31 33 36 37 36 36 37 40 40 46 48 50 45 46 52 56 55 56 57 61 63 63 62 63 65 67 68 68 67 70 71 73 74 75 76 76 76 76 76 76 76 76 76 76 76 75 75 74 74 74 74 74 73 74 75 75 75 75 74
13 12 13 15 23 12 4 -2 -1 -2 -3 -4 1 10 10 15 18 19 21 19 18 19 22 20 19 21 28 31 31 31 33 35 36 35 36 38 42 47 46 49 53 53 51 55 61 61 61 62 63 64 65 67 68 68 69 67 67 71 73 74 75 76 76 76 76 76 76 76 76 76 76 76 76 76 75 75 74 74 74 74 74 75 74 75 74 74
14 13 12 14 15 18 7 -1 1 -4 -5 -2 5 11 14 13 15 19 18 21 21 21 18 19 21 20 24 27 31 29 33 34 35 39 36 39 42 46 50 54 52 52 52 54 57 58 61 62 61 63 65 66 68 68 68 68 68 70 72 74 75 76 76 76 76 76 76 76 77 76 76 76 76 76 76 76 74 74 75 75 74 73 73 74 73 72
15 14 12 12 14 15 9 3 2 1 2 4 3 4 12 16 12 18 18 17 17 19 20 18 18 25 18 23 27 29 33 36 34 34 42 44 41 49 48 52 51 51 54 55 57 56 59 63 64 64 66 66 67 67 66 68 70 71 72 74 75 76 76 76 76 76 76 76 77 77 76 76 76 75 76 76 75 75 75 75 74 74 73 74 73 73
12 13 14 12 14 14 10 7 6 3 0 -1 -1 1 5 9 16 13 17 16 16 18 19 24 21 23 22 33 31 33 29 33 35 36 40 44 43 43 47 51 49 50 50 51 55 58 61 64 64 64 66 67 67 68 66 68 70 70 71 74 75 76 76 76 76 76 76 76 76 77 76 76 76 76 75 76 76 76 75 75 75 75 75 74 75 75
15 13 13 14 13 13 12 11 9 5 2 -3 -5 -1 -1 3 6 17 24 16 18 20 22 25 22 22 23 23 23 29 31 33 35 34 33 38 39 43 44 49 49 50 50 52 54 58 62 62 64 65 65 65 66 66 67 69 70 71 72 73 75 76 76 76 76 75 76 76 76 76 76 76 76 75 75 74 75 73 75 75 75 74 74 74 75 73
14 15 14 15 14 13 12 12 10 7 3 -3 -7 -5 -1 1 5 18 13 19 15 18 21 16 17 21 23 23 27 26 29 28 32 33 30 38 41 41 46 49 51 51 53 55 59 61 62 63 65 64 64 63 65 65 68 70 70 71 72 72 74 75 76 76 76 75 75 76 76 76 76 76 76 74 74 74 74 75 75 75 75 74 74 73 73 72
10 12 14 15 15 13 10 10 9 9 6 1 -7 -4 -1 5 7 17 17 12 15 19 22 21 19 21 23 25 24 27 27 29 35 38 33 35 35 37 48 49 53 54 53 55 55 61 62 62 63 66 64 63 65 68 69 70 69 69 71 72 72 74 75 76 74 75 75 76 75 76 76 76 76 75 74 74 75 75 75 72 74 72 73 73 73 73
10 8 10 14 14 11 8 10 12 9 8 4 -0 -7 -4 2 8 13 14 21 24 19 19 16 18 21 26 23 23 25 29 33 31 35 33 32 33 36 39 52 54 52 53 52 52 57 59 60 59 61 64 63 65 67 67 67 67 66 68 72 72 73 76 76 76 76 76 75 75 76 76 76 77 76 75 75 75 75 74 74 73 72 72 73 72 73
11 22 13 10 15 12 10 12 10 9 6 3 -1 -4 -6 1 5 8 8 15 19 22 20 19 17 23 26 24 21 27 37 34 31 37 40 36 33 33 37 41 51 51 54 54 55 55 57 58 58 61 63 64 65 67 67 66 66 64 66 69 71 74 74 75 75 76 76 75 75 76 77 76 76 76 75 75 75 75 75 74 74 73 72 74 73 72
15 15 15 14 12 13 11 12 12 11 9 5 -0 -3 -7 -4 9 10 11 7 13 18 21 18 19 27 21 19 32 32 42 30 33 38 39 36 32 40 39 44 47 51 56 55 53 53 55 62 63 63 64 66 65 65 66 66 65 64 64 67 70 71 73 73 75 76 76 75 76 75 76 76 76 76 75 75 75 74 74 74 74 74 74 73 73 72
17 17 14 14 13 11 13 13 15 15 14 10 5 -2 -6 -7 1 8 12 14 13 15 14 18 17 23 30 41 39 32 33 25 32 33 35 33 36 35 38 36 47 53 54 51 52 51 53 61 62 61 63 67 66 67 67 66 65 64 66 68 69 70 72 73 74 75 76 76 76 76 76 76 76 76 75 74 74 72 72 74 75 75 74 72 72 73
44 14 15 15 20 17 15 14 15 16 14 11 7 3 -5 -8 -6 -0 7 16 13 14 15 14 20 19 24 57 44 28 50 27 35 32 42 32 32 36 37 38 52 59 57 53 52 51 58 60 62 62 63 67 68 69 69 68 67 66 66 66 67 69 71 72 73 73 76 76 75 75 76 77 77 75 73 72 73 72 71 71 74 75 74 73 72 72
17 25 20 18 22 21 19 18 11 12 13 12 9 8 5 -2 -4 -4 1 20 18 12 10 14 15 17 26 35 54 43 29 23 27 28 33 35 39 36 39 57 54 60 59 56 58 59 60 59 61 64 67 70 70 69 70 70 69 68 68 67 67 68 71 71 72 72 74 74 74 74 76 76 76 75 74 73 72 72 71 71 72 74 73 73 72 72
18 20 25 16 19 20 20 18 11 15 13 12 13 10 9 4 5 1 -1 14 13 34 33 19 20 28 28 38 35 34 33 42 37 29 26 35 55 39 45 55 61 61 64 63 63 62 60 62 64 69 71 71 70 69 71 71 70 68 69 68 67 68 70 70 70 71 73 73 74 75 76 76 75 74 74 74 72 72 71 71 73 73 73 73 72 73
21 23 27 27 22 19 22 31 17 17 14 11 10 10 7 5 3 5 10 8 3 20 22 31 32 27 30 26 35 28 30 33 36 37 37 42 42 49 61 66 63 63 65 63 65 63 65 66 68 71 73 71 69 69 71 70 70 69 70 69 67 68 69 71 70 72 73 74 73 76 76 75 75 75 74 74 74 73 72 71 70 71 72 72 72 71
33 24 22 35 29 23 20 24 17 16 13 12 9 8 8 8 7 6 6 4 28 21 10 28 43 27 24 26 36 37 29 34 38 45 36 42 54 53 43 58 68 65 66 68 68 68 69 73 73 73 73 72 70 70 71 71 70 70 70 68 66 66 67 68 70 72 74 75 75 76 76 76 76 75 75 75 75 75 73 73 73 73 74 73 72 71
25 21 21 20 19 17 16 19 20 15 13 13 10 7 8 8 7 7 17 7 25 12 10 29 42 39 31 20 22 34 44 40 28 34 35 38 38 52 68 59 64 63 65 65 68 68 70 73 74 74 74 72 70 70 71 70 70 71 71 69 68 65 67 69 70 71 73 75 75 76 77 77 77 76 76 76 76 76 75 75 75 75 75 74 73 72
29 22 23 20 21 19 19 17 18 19 18 14 11 11 8 5 6 5 4 3 5 29 26 23 42 31 18 20 21 25 33 30 37 46 41 42 32 47 65 54 45 59 63 64 67 68 71 73 74 74 75 74 71 71 70 71 71 70 70 70 68 68 69 71 71 72 74 75 76 77 77 77 77 77 77 77 77 77 76 76 76 75 75 75 74 74
24 27 30 22 25 22 21 21 19 19 20 20 15 5 9 10 6 6 5 4 10 8 4 4 26 30 19 30 28 27 31 29 34 31 29 39 38 33 39 48 41 46 57 64 67 67 69 71 73 74 74 74 73 72 71 72 72 72 68 70 68 69 70 71 73 73 74 76 77 78 78 78 78 78 77 77 78 77 77 77 77 76 75 75 75 74
22 24 24 26 26 25 24 17 18 20 19 20 21 18 15 15 16 8 11 11 13 23 24 11 25 23 23 26 20 30 32 32 30 36 37 46 36 41 40 35 40 52 60 64 66 65 69 70 72 73 73 73 73 73 73 74 73 72 70 71 70 68 70 72 73 73 75 76 78 78 78 78 78 78 78 78 78 78 77 77 77 77 76 76 75 75
21 21 20 22 24 26 24 21 19 21 21 19 19 18 19 18 17 11 14 18 16 10 12 17 16 25 33 35 26 29 19 30 31 28 33 35 52 45 42 43 39 47 56 64 67 67 68 66 69 72 71 72 72 73 73 74 72 73 72 73 73 71 72 74 74 74 75 77 78 78 79 79 78 78 78 78 78 78 77 77 76 76 75 75 75 75
23 20 20 25 25 25 23 22 23 24 23 23 25 20 20 18 19 17 16 17 17 16 16 16 19 31 32 25 23 30 29 34 42 47 47 52 53 64 53 44 39 39 43 61 66 67 68 69 70 72 73 74 74 71 73 74 73 74 74 75 75 73 74 76 75 75 75 77 78 79 79 79 78 77 77 77 78 77 77 76 76 76 75 75 75 75
20 24 25 32 22 22 24 24 25 23 23 32 28 27 24 20 18 18 18 16 19 20 19 23 22 26 32 28 29 34 37 41 38 34 27 27 42 42 47 47 54 47 46 57 68 66 70 71 73 74 75 74 72 73 74 74 74 75 75 76 75 74 76 76 76 76 76 77 78 79 78 78 78 78 77 77 77 77 76 76 76 75 75 75 74 74
21 21 26 25 23 23 26 28 24 23 31 27 26 27 29 26 24 23 21 20 18 16 23 35 36 36 39 30 23 31 36 27 23 36 47 33 31 36 30 33 36 38 44 49 59 71 72 71 72 73 74 73 73 71 72 73 72 72 74 76 75 75 77 77 77 76 77 77 78 78 78 78 77 77 77 77 77 76 76 76 75 75 75 74 73 73
22 29 25 23 29 25 26 26 25 34 29 28 28 31 29 35 29 28 25 26 25 25 25 36 40 37 41 41 30 27 31 24 31 34 22 21 31 27 24 27 25 34 37 47 45 63 73 72 73 73 76 75 72 72 72 72 72 73 75 75 74 77 77 77 77 77 77 77 78 78 78 77 77 77 77 76 76 76 75 75 75 75 75 74 72 72
37 32 38 29 27 26 27 28 28 27 27 31 36 37 37 36 35 38 39 36 39 36 36 47 45 41 41 36 40 47 49 40 29 31 32 20 20 23 24 23 22 28 33 35 45 46 71 73 72 74 75 74 73 73 75 74 74 75 76 75 75 76 76 77 77 77 78 78 78 78 77 77 76 76 75 75 75 75 74 74 75 75 75 73 71 71
31 33 42 34 25 24 27 28 29 28 30 37 44 39 40 38 34 37 35 32 45 46 50 46 46 47 47 48 51 51 49 43 41 33 32 27 21 16 22 24 22 24 30 34 36 39 67 72 73 73 75 75 74 75 76 76 76 75 76 76 75 76 75 76 77 77 77 77 78 77 77 76 75 76 75 74 74 73 73 73 74 73 73 72 72 71
30 29 30 32 35 32 32 30 29 34 33 39 41 39 37 38 37 37 32 29 56 54 49 50 50 47 52 54 53 51 47 39 38 46 36 23 24 26 38 41 40 35 33 35 35 40 71 74 74 75 75 74 75 76 76 76 76 75 76 76 75 75 75 76 77 78 78 77 77 76 76 75 75 75 74 74 74 74 73 73 72 72 72 71 70 69
29 30 28 29 33 35 38 34 33 33 41 46 41 37 38 36 37 33 30 37 53 52 50 51 48 50 53 54 54 51 53 53 50 46 36 34 29 27 41 53 55 51 50 37 44 73 75 75 74 74 74 75 76 76 76 76 75 76 76 76 76 75 76 77 78 78 77 77 75 75 75 75 75 74 73 73 73 73 72 71 71 71 70 68 68 69
26 30 30 31 29 32 33 32 32 34 39 43 38 37 39 38 35 33 51 54 53 47 49 48 49 52 54 55 56 56 55 53 51 46 42 36 45 53 45 52 58 56 47 52 72 73 73 71 76 76 76 77 76 75 75 76 76 76 77 76 76 76 76 77 77 77 77 76 75 74 74 74 74 73 72 73 73 72 72 72 71 70 69 68 69 69
24 24 25 27 29 29 31 31 29 29 38 33 36 38 40 37 38 50 52 50 48 51 52 53 53 56 56 55 54 55 55 53 53 52 54 56 54 56 56 57 65 66 68 71 72 71 69 73 75 74 74 71 72 74 75 76 76 77 76 76 76 76 77 77 77 77 76 75 74 74 74 74 74 72 72 73 72 72 72 71 70 70 69 69 69 68
41 21 23 26 30 27 26 27 29 36 38 34 41 44 50 50 51 54 50 48 49 51 52 53 56 57 57 57 57 56 56 54 57 61 58 59 61 61 63 65 71 69 67 67 68 69 69 75 74 72 71 71 74 74 75 76 76 75 75 75 76 76 76 76 76 75 74 73 73 73 73 73 72 72 73 73 72 72 71 70 69 69 68 69 68 67
50 47 50 41 32 30 30 31 41 48 45 43 47 51 51 51 51 50 50 48 49 49 52 54 56 57 59 62 62 60 57 57 60 60 62 63 64 64 64 69 70 68 67 67 67 71 71 71 72 72 72 73 75 75 76 76 75 74 75 76 76 75 75 75 74 73 73 72 72 72 72 72 72 72 72 72 72 71 70 70 69 68 68 68 67 67
48 48 50 50 50 50 48 48 48 48 47 45 43 44 44 45 46 48 49 50 49 51 54 57 59 60 61 63 63 63 62 63 64 64 64 64 64 65 68 69 69 69 67 68 69 71 71 70 71 71 72 73 75 76 75 76 76 75 75 75 75 75 74 74 73 72 72 72 72 72 71 71 71 71 71 71 71 70 69 68 67 67 67 67 66 66
50 49 46 47 53 48 45 55 51 54 50 45 45 44 43 44 47 49 51 52 51 55 58 58 59 60 61 62 63 63 62 62 63 63 64 65 65 66 66 67 69 70 70 71 72 71 71 71 69 69 71 73 75 75 74 73 73 74 74 74 73 73 74 73 72 72 72 71 71 70 70 70 70 70 70 69 69 68 68 68 68 67 66 66 66 66
50 53 48 47 50 49 51 55 54 53 55 53 48 53 48 48 49 50 51 53 55 55 54 55 56 57 58 59 61 62 62 62 63 63 63 63 63 64 65 64 64 65 70 71 71 71 71 71 71 72 74 74 74 74 73 73 72 72 73 71 71 72 72 72 71 71 70 70 70 70 69 69 70 69 68 68 68 67 67 67 67 67 67 66 66 66
51 53 47 48 48 51 53 55 54 52 51 51 51 51 51 51 51 50 51 50 50 51 51 52 52 53 54 55 57 60 61 62 63 63 63 63 63 62 64 64 65 64 64 65 69 70 72 72 71 71 71 71 72 72 72 71 70 69 70 71 71 71 70 70 69 69 68 67 67 68 69 69 68 67 67 65 61 57 53 55 66 68 63 59 58 61
51 49 49 48 48 48 50 53 54 51 50 51 51 51 50 50 50 50 50 49 49 50 50 49 49 50 51 52 55 57 59 60 61 62 63 64 64 63 64 65 65 65 65 65 66 69 70 69 70 69 69 69 69 69 69 69 69 69 69 70 70 70 70 70 69 68 67 67 66 66 66 66 65 66 66 64 60 57 53 49 44 51 64 59 54 49
52 53 51 50 48 48 54 57 57 53 53 53 54 54 51 50 49 48 48 48 48 48 47 48 47 48 48 50 51 53 59 61 61 62 61 63 65 64 65 65 65 63 65 65 66 66 67 70 70 69 69 69 69 69 69 69 69 70 69 70 70 70 70 70 68 66 65 65 64 64 64 63 64 66 68 65 63 62 60 57 53 42 42 47 49 47